Hourly Data Report for October 27, 2014

All times are specified in Local Standard Time (LST). Add 1 hour to adjust for Daylight Saving Time where and when it is observed.

MONCTON INTL A
NEW BRUNSWICK

46°06'44.000" N
64°40'43.000" W
70.70 m
8103201
71705
YQM

Download Data

Hourly Data (October 2014)
Hourly Data Report for October 27, 2014
Temp Definition
°C
Dew Point Temp Definition
°C
Rel Hum Definition
%
Wind Dir Definition
10's deg

Wind Spd Definition
km/h
Visibility Definition
km
Stn Press Definition
kPa
Hmdx Definition


Wind Chill Definition


Weather Definition


TIME
00:00 Legend Double Dagger 6.8 6.2 96 29 16 19.3 98.48     LegendNANA
01:00 Legend Double Dagger 6.6 5.9 95 28 25 19.3 98.49     Rain Showers
02:00 Legend Double Dagger 6.5 5.6 94 29 19 19.3 98.50     Rain Showers
03:00 Legend Double Dagger 6.3 5.7 96 28 19 4.0 98.50     Rain Showers,Fog
04:00 Legend Double Dagger 6.4 5.7 95 29 21 4.0 98.56     Rain Showers,Fog
05:00 Legend Double Dagger 6.1 4.9 92 29 27 24.1 98.60     Cloudy
06:00 Legend Double Dagger 5.6 4.4 92 27 21 24.1 98.65     LegendNANA
07:00 Legend Double Dagger 5.0 3.5 90 26 28 24.1 98.72     LegendNANA
08:00 Legend Double Dagger 4.9 3.3 89 27 25 24.1 98.81     Mostly Cloudy
09:00 Legend Double Dagger 5.3 3.0 85 27 24 24.1 98.84     LegendNANA
10:00 Legend Double Dagger 5.8 3.0 82 27 35 24.1 98.87     LegendNANA
11:00 Legend Double Dagger 6.3 2.9 79 29 30 24.1 98.90     Mostly Cloudy
12:00 Legend Double Dagger 6.8 3.1 77 29 29 24.1 98.91     LegendNANA
13:00 Legend Double Dagger 7.7 3.2 73 28 36 24.1 98.95     LegendNANA
14:00 Legend Double Dagger 7.7 2.6 70 29 32 24.1 99.02     Mostly Cloudy
15:00 Legend Double Dagger 7.8 2.5 69 29 32 24.1 99.09     LegendNANA
16:00 Legend Double Dagger 7.5 2.6 71 29 28 24.1 99.19     LegendNANA
17:00 Legend Double Dagger 7.2 2.3 71 30 28 24.1 99.27     Mostly Cloudy
18:00 Legend Double Dagger 7.0 2.1 71 29 28 24.1 99.39     LegendNANA
19:00 Legend Double Dagger 6.3 2.2 75 29 28 24.1 99.48     Rain Showers
20:00 Legend Double Dagger 5.8 1.7 75 29 22 24.1 99.56     Mostly Cloudy
21:00 Legend Double Dagger 5.3 1.2 75 29 28 24.1 99.62     LegendNANA
22:00 Legend Double Dagger 4.4 1.1 79 28 21 24.1 99.74     LegendNANA
23:00 Legend Double Dagger 4.8 1.3 78 29 24 24.1 99.83     Mostly Cloudy

Notes on Data Quality.

Legend

  • E = Estimated
  • M = Missing
  • NA = Not Available
  • ‡ = Partner data that is not subject to review by the National Climate Archives
Date modified: